GEFSSGP_con_prob3kmehi_138.txt.gz
EHI
12 5 1 0 0 0 0 0 0 0 0 0 0 1 1 0 0 1 2 10 25 32 28 29 33 26 14 8 5 2 1 2 2 1 0 0 0 0 0 0 0 0 0 0 0 0 0 0 0
4 2 0 0 0 0 0 0 0 0 0 0 1 2 1 2 3 4 6 19 35 39 31 31 37 31 17 8 5 3 1 1 1 0 0 0 0 0 0 0 0 0 0 0 0 0 0 0 0
0 0 0 0 0 0 0 0 0 1 2 3 2 2 1 4 9 12 18 35 47 44 36 40 47 39 21 9 5 3 1 0 0 0 0 0 0 0 0 0 0 0 0 0 0 0 0 0 0
0 0 0 0 0 0 0 0 1 3 5 6 5 2 1 9 23 32 38 49 54 48 44 51 55 46 27 12 5 3 1 0 0 0 0 0 0 0 0 0 0 0 0 0 0 0 0 0 0
0 0 0 0 0 0 0 0 2 7 11 13 10 6 6 24 48 55 52 55 58 55 52 54 56 49 32 15 5 1 0 0 0 0 0 0 0 0 0 0 0 0 0 0 0 0 0 0 0
0 0 0 0 0 0 0 1 4 11 18 20 17 10 16 43 66 65 56 54 58 62 57 51 49 44 32 18 6 1 0 0 0 0 0 0 0 0 0 0 0 0 0 0 0 0 0 0 0
0 0 0 0 0 0 0 1 4 12 20 22 20 16 24 52 71 68 58 54 58 63 61 51 42 34 27 19 8 2 0 0 0 0 0 0 0 0 0 0 1 1 1 0 0 0 0 0 0
0 0 0 0 0 0 0 1 4 11 19 21 20 20 31 55 77 77 68 59 56 57 57 53 42 31 24 17 9 3 0 0 0 0 0 0 0 0 0 1 2 2 1 0 0 0 0 1 1
0 0 0 0 0 0 0 1 5 14 21 21 21 27 42 65 83 88 80 67 56 52 52 51 46 37 27 17 9 3 1 0 0 0 0 0 0 0 0 1 2 3 2 0 0 0 1 2 2
0 0 0 0 0 0 0 1 7 17 22 21 26 39 56 71 84 90 87 73 60 54 52 49 46 41 31 21 13 6 2 0 0 0 0 0 0 0 0 1 2 2 1 1 1 1 2 3 3
0 0 0 0 0 0 0 1 6 15 19 22 32 48 61 68 74 83 84 76 65 58 54 50 45 40 32 24 17 10 4 1 0 0 0 0 0 0 0 0 1 1 1 1 1 2 2 2 1
0 0 0 0 0 0 0 1 4 9 14 22 37 50 57 60 63 70 77 75 68 58 50 46 42 35 28 23 16 9 4 1 0 0 0 0 0 0 0 0 0 0 0 0 1 1 1 1 0
0 0 0 0 0 0 0 1 3 8 16 29 43 52 55 54 54 59 67 71 68 59 47 39 34 28 22 17 12 6 2 1 0 0 0 0 0 0 0 0 0 0 0 0 0 0 0 0 0
0 0 0 0 0 0 0 1 5 14 26 40 51 54 53 51 50 53 58 64 67 61 52 43 35 28 21 16 12 7 3 2 2 1 0 0 0 0 0 0 0 0 0 0 0 0 0 0 0
0 0 0 0 0 0 0 1 6 19 33 46 54 55 53 51 51 52 54 61 66 64 60 55 47 36 28 23 18 13 10 7 5 2 0 0 0 0 0 0 0 0 0 0 0 0 0 0 0
0 0 0 0 0 0 0 1 6 18 33 45 53 57 56 54 53 52 53 59 66 67 64 61 56 47 39 33 27 23 17 13 10 5 3 3 3 2 1 1 0 0 0 0 0 0 0 0 0
0 0 0 0 0 0 0 2 6 15 29 42 52 59 59 56 53 52 52 56 64 66 63 61 59 54 47 40 35 29 22 18 14 9 6 7 7 5 3 2 2 2 1 0 0 0 0 0 0
0 0 0 0 0 0 1 3 7 15 27 39 49 58 62 59 54 53 53 55 59 62 61 61 62 57 49 41 36 30 25 21 16 11 9 9 8 7 5 4 3 3 2 1 0 0 0 0 0
0 0 0 0 0 0 2 4 8 16 26 35 44 54 61 60 54 54 55 57 60 60 61 63 61 55 44 36 32 28 25 22 17 11 8 7 7 6 6 5 4 3 3 1 0 0 0 0 0
0 0 0 0 0 0 2 5 8 14 21 26 33 44 54 57 55 55 58 62 63 62 62 62 58 48 38 30 26 23 21 18 14 9 6 6 6 6 6 4 3 3 3 2 1 0 0 0 0
0 0 0 0 0 0 2 4 7 11 16 19 22 30 43 52 54 56 60 62 61 59 59 58 52 43 33 26 22 19 16 14 11 8 7 7 6 5 5 4 3 3 3 2 1 0 0 0 0
0 0 0 0 0 0 0 2 5 9 13 14 15 22 36 46 50 52 56 56 55 53 54 52 47 40 31 25 21 18 15 12 9 7 6 7 6 5 4 3 2 2 1 1 0 0 0 0 0
0 0 0 0 0 0 0 0 2 5 9 10 12 19 32 42 46 47 49 49 48 49 49 47 42 36 30 25 21 17 13 8 6 6 5 5 5 4 3 3 2 1 0 0 0 0 0 0 0
0 0 0 0 0 0 0 0 0 1 4 7 11 17 28 37 42 45 46 45 44 46 46 42 37 32 28 24 21 17 11 6 5 6 6 4 3 3 4 4 2 0 0 0 0 0 0 0 0
0 0 0 0 0 0 0 0 0 0 2 5 9 16 25 34 40 42 42 42 41 41 41 38 34 29 26 23 22 17 10 6 6 8 7 5 3 3 4 3 2 0 0 0 0 0 0 0 0
0 0 0 0 0 0 0 0 0 0 0 2 7 14 23 33 38 36 36 38 38 38 37 34 29 25 23 22 20 17 12 8 7 7 7 7 5 4 4 3 2 1 0 0 0 0 0 0 0
0 0 0 0 0 0 0 0 0 0 0 2 6 11 18 27 32 29 28 31 32 33 33 28 23 21 20 18 17 16 14 11 8 6 7 7 6 5 5 4 3 1 1 0 0 0 1 2 1
0 0 0 0 0 0 0 0 0 0 0 2 4 7 11 19 24 22 20 21 24 26 25 21 18 17 16 15 15 15 14 12 9 7 6 6 5 4 5 5 4 3 2 1 0 0 2 3 3
0 0 0 0 0 0 0 0 0 0 0 1 2 3 7 13 18 17 14 15 18 20 19 17 17 16 16 14 14 14 14 13 11 8 6 5 4 4 4 5 5 4 3 1 0 0 1 2 2
0 0 0 0 0 0 0 0 0 0 0 0 1 3 6 10 15 15 12 14 17 18 18 17 16 16 16 15 13 13 13 13 12 9 6 5 5 4 4 5 6 5 3 1 0 0 0 1 1

GEFSSGP_con_prob3kmehi_144.txt.gz
EHI
4 2 1 0 0 0 0 0 0 0 0 1 1 2 2 1 0 0 0 0 0 0 1 6 15 20 21 24 26 25 21 17 14 10 4 1 0 0 0 0 0 0 0 0 0 0 0 0 0
1 1 0 0 0 0 0 0 0 0 0 1 3 4 4 3 1 0 0 0 0 0 2 9 19 24 24 27 28 24 18 15 13 8 3 0 0 0 0 0 0 0 0 0 0 0 0 0 0
0 0 0 0 0 0 0 0 0 0 0 1 3 4 5 3 1 0 0 1 2 2 2 14 28 32 30 30 28 22 15 11 9 5 2 1 0 1 1 1 0 0 0 0 0 0 0 0 0
0 0 0 0 0 0 0 0 0 0 0 1 3 4 3 2 1 2 3 6 9 6 5 18 35 39 34 31 26 20 13 8 6 4 3 2 2 2 2 1 0 0 0 0 0 0 0 0 0
0 0 0 0 0 0 0 0 0 0 1 3 5 5 3 3 5 9 11 13 16 14 11 22 39 42 36 31 25 19 11 6 4 3 3 3 3 3 2 1 0 0 0 0 0 0 0 0 0
0 0 0 0 0 0 0 0 0 2 3 6 8 7 4 5 12 18 19 19 21 25 23 26 36 37 33 30 25 17 9 5 3 3 3 3 2 2 2 1 0 0 0 0 0 0 0 0 0
0 0 0 0 0 0 0 0 1 3 5 8 12 10 6 9 18 23 25 27 30 34 35 31 29 27 25 24 21 16 9 4 3 3 2 1 1 1 1 0 0 0 0 0 0 0 0 0 0
0 0 0 0 0 0 0 0 1 4 7 9 11 9 12 23 33 36 37 38 38 38 37 34 27 21 17 15 14 13 8 4 3 3 1 0 0 0 0 0 0 0 0 0 0 0 0 0 0
0 0 0 0 0 0 0 0 1 4 7 9 9 14 29 50 59 57 56 51 43 36 31 27 25 20 15 12 10 9 6 4 3 3 1 0 0 0 0 0 1 1 0 0 0 0 0 0 0
0 0 0 0 0 0 0 0 2 5 8 11 19 36 58 73 74 70 65 57 47 38 28 21 20 21 18 14 10 8 5 3 3 2 1 0 0 0 0 0 1 1 0 0 0 0 0 0 0
0 0 0 0 0 0 0 0 3 6 8 16 38 64 80 81 74 67 59 50 45 41 31 22 22 23 19 15 12 9 5 2 2 1 1 0 0 0 0 0 0 0 0 0 0 0 0 0 0
0 0 0 0 0 0 0 0 2 5 6 20 52 79 86 80 67 57 49 43 42 43 37 27 26 26 20 16 14 11 5 2 0 0 0 0 0 0 0 0 0 0 0 0 0 0 0 0 0
0 0 0 0 0 0 0 0 1 3 8 29 61 81 83 73 59 50 45 43 43 43 39 34 31 29 24 19 18 14 7 2 0 0 0 0 0 0 0 0 0 0 0 0 0 0 0 0 0
0 0 0 0 0 0 0 0 0 4 16 42 68 78 75 66 57 52 48 44 41 39 38 37 34 29 26 23 22 18 10 5 2 0 0 0 0 0 0 0 0 0 0 0 0 0 0 0 0
0 0 0 0 0 0 0 0 1 8 26 49 67 73 67 60 55 53 49 42 35 33 34 36 32 27 24 22 20 17 13 9 4 1 0 0 0 0 0 0 0 0 0 0 0 0 0 0 0
0 0 0 0 0 0 0 0 1 12 29 45 58 64 60 53 49 47 44 39 33 30 32 34 31 25 21 17 14 12 11 10 7 2 0 0 0 0 0 0 0 0 0 0 0 0 0 0 0
0 0 0 0 0 0 0 0 2 12 26 38 46 52 51 45 39 37 37 36 34 30 31 33 31 25 17 12 9 8 7 7 6 3 1 0 0 0 0 0 0 0 0 0 0 0 0 0 0
0 0 0 0 0 0 0 0 2 9 20 29 36 39 39 36 33 31 33 35 34 31 30 30 27 22 16 11 8 6 5 5 5 4 2 1 0 0 0 0 0 0 0 0 0 0 0 0 0
0 0 0 0 0 0 0 0 1 7 14 22 28 30 31 31 31 32 35 37 37 34 31 27 23 20 18 15 11 7 4 4 4 4 2 1 0 0 0 0 0 0 0 0 0 0 0 0 0
0 0 0 0 0 0 0 0 1 4 9 14 20 23 26 28 31 34 38 41 42 40 34 29 25 22 20 17 13 7 4 4 4 4 2 1 0 0 0 0 0 0 0 0 0 0 0 0 0
0 0 0 0 0 0 0 0 0 1 3 7 11 15 20 25 28 32 36 39 42 41 37 32 28 26 21 17 12 8 5 5 4 3 2 1 0 0 0 0 0 0 0 0 0 0 0 0 0
0 0 0 0 0 0 0 0 0 0 0 2 5 10 16 20 23 28 32 34 35 36 35 33 31 27 20 15 12 10 9 7 4 2 1 1 0 0 0 0 0 0 0 0 0 0 0 0 0
0 0 0 0 0 0 0 0 0 0 0 1 3 7 12 17 21 25 28 29 29 30 31 32 31 25 18 13 12 12 12 9 5 2 1 0 0 0 0 0 0 0 0 0 0 0 0 0 0
0 0 0 0 0 0 0 0 0 0 0 0 2 5 9 14 19 22 23 23 23 25 28 30 27 22 17 13 11 12 12 10 6 3 1 0 0 0 0 0 0 0 0 0 0 0 0 0 0
0 0 0 0 0 0 0 0 0 0 0 0 1 3 7 12 16 18 18 17 19 21 26 27 24 19 17 15 12 10 10 9 7 5 2 0 0 0 0 0 0 0 0 0 0 0 0 0 0
0 0 0 0 0 0 0 0 0 0 0 0 0 2 5 9 11 13 13 13 15 19 23 25 23 20 19 17 14 11 9 8 6 5 3 1 0 0 0 0 0 0 0 0 0 0 0 0 0
0 0 0 0 0 0 0 0 0 0 0 0 0 1 3 5 6 7 8 10 12 16 20 22 22 21 21 20 17 13 10 8 6 5 3 1 0 0 0 0 0 0 0 0 0 0 0 0 0
0 0 0 0 0 0 0 0 0 0 0 0 0 0 1 2 2 3 5 7 9 12 15 18 20 19 19 19 17 14 12 11 8 6 3 1 0 0 0 0 0 0 0 0 0 0 0 0 0
0 0 0 0 0 0 0 0 0 0 0 0 0 0 0 0 0 0 2 4 6 8 10 12 14 14 14 13 12 12 12 12 10 7 4 1 0 0 0 0 0 0 0 0 0 0 0 0 0
0 0 0 0 0 0 0 0 0 0 0 1 1 1 0 0 0 0 0 2 5 5 7 8 10 11 11 10 9 9 11 12 11 8 5 2 0 0 0 1 1 1 0 0 0 0 0 0 0

GEFSSGP_con_prob3kmehi_150.txt.gz
EHI
1 2 5 9 8 3 0 0 0 0 0 0 0 0 0 0 0 0 0 0 0 0 0 1 2 4 4 6 12 17 18 17 14 8 3 1 0 0 0 0 0 0 0 0 0 0 0 0 0
0 1 3 5 4 1 0 0 0 0 0 0 0 0 0 0 0 0 0 0 0 0 1 2 4 6 7 9 14 17 16 15 12 6 3 1 0 0 0 0 0 0 0 0 0 0 0 0 0
1 1 2 2 1 0 0 0 0 0 0 0 0 0 0 0 0 0 0 0 0 0 2 6 8 8 8 9 13 14 12 10 8 5 2 0 0 0 0 0 0 0 0 0 0 0 0 0 0
3 3 2 1 0 0 0 0 0 0 0 0 0 1 2 2 1 0 0 0 0 0 3 8 10 9 7 8 9 9 8 7 6 4 1 0 0 0 0 0 0 0 0 0 0 0 0 0 0
3 3 1 0 0 0 0 0 0 0 0 0 1 3 5 5 3 2 2 1 0 0 3 7 10 9 8 7 8 7 5 4 4 3 1 0 0 0 0 0 0 0 0 0 0 0 0 0 0
2 1 0 0 0 0 0 0 0 0 0 0 1 5 9 10 8 5 3 1 0 1 3 6 8 8 8 7 6 5 3 1 1 2 1 0 0 0 0 0 0 0 0 0 0 0 0 0 0
1 0 0 0 0 0 0 0 0 0 0 0 2 7 17 24 19 11 6 2 1 2 5 6 6 5 4 4 3 3 2 1 2 3 2 1 0 0 0 0 0 0 0 0 0 0 0 0 0
0 0 0 0 0 0 0 0 0 0 0 0 2 8 28 46 41 26 15 8 4 4 6 6 5 3 2 2 3 2 1 2 4 4 4 2 1 0 0 1 1 1 0 0 0 0 0 0 0
0 0 0 0 0 0 0 0 0 0 0 1 4 18 46 69 66 50 36 23 15 11 8 7 5 3 2 2 3 2 0 1 3 3 2 1 0 0 0 1 2 2 1 0 0 0 0 0 0
0 0 0 0 0 0 0 0 0 0 0 3 15 41 70 84 82 70 55 42 31 20 12 8 6 4 2 1 1 1 1 1 1 1 0 0 0 0 1 2 3 2 1 0 0 0 0 1 1
0 0 0 0 0 0 0 0 0 0 0 5 26 61 86 91 87 78 65 51 39 27 16 10 9 6 2 0 1 2 3 2 2 2 1 0 0 0 1 2 3 2 1 0 0 0 0 0 0
0 0 0 0 0 0 0 0 0 0 0 6 30 66 89 92 84 74 64 52 42 34 22 15 15 13 8 5 4 3 4 4 4 4 2 0 0 0 0 1 2 1 0 0 0 0 0 0 0
0 0 0 0 0 0 0 0 0 0 1 9 32 64 84 86 77 67 60 54 48 41 31 23 23 24 20 15 10 6 5 6 6 5 2 1 1 1 0 0 1 1 0 0 0 0 0 0 0
0 0 0 0 0 0 0 0 0 1 3 11 32 59 74 77 73 67 61 57 52 47 38 32 30 30 27 22 16 10 7 7 6 5 3 2 3 2 1 0 1 1 1 0 0 0 0 0 0
0 0 0 0 0 0 0 0 0 1 3 9 26 48 64 69 69 68 65 60 55 49 43 37 33 30 27 22 18 14 11 9 7 5 5 4 3 2 1 0 1 1 1 0 0 0 0 0 0
0 0 0 0 0 0 0 0 0 0 1 6 18 35 52 61 64 63 62 61 56 50 46 40 34 32 28 21 18 17 16 14 10 7 7 6 3 2 2 2 1 1 0 0 1 1 0 0 1
0 0 0 0 0 0 0 0 0 0 0 3 12 25 39 54 62 60 57 56 53 49 47 43 39 36 32 25 21 21 22 22 19 13 10 7 3 1 1 3 3 1 0 0 1 1 1 0 1
0 0 0 0 0 0 0 0 0 0 0 2 8 18 31 46 58 60 56 52 51 50 48 46 43 42 39 34 29 25 23 25 24 19 13 7 3 1 0 2 2 1 0 0 1 2 1 0 1
0 0 0 0 0 0 0 0 0 0 0 1 5 15 26 37 49 56 56 52 51 52 50 47 46 47 46 43 38 32 25 23 22 19 13 7 3 1 0 1 2 2 1 0 1 2 2 0 0
0 0 0 0 0 0 0 0 0 0 0 0 2 10 19 29 41 51 54 52 52 52 50 46 46 47 48 46 41 35 29 22 17 16 14 10 4 1 0 1 2 3 2 1 2 3 3 1 0
0 0 0 0 0 0 0 0 0 0 0 0 2 6 14 25 37 48 52 51 49 50 47 45 44 44 45 44 39 33 27 19 15 15 15 12 7 2 0 1 2 2 2 2 3 4 4 2 1
0 0 0 0 0 0 0 0 0 0 0 1 3 6 11 19 30 40 49 50 47 46 44 44 44 44 44 43 39 32 22 15 13 14 15 13 9 4 1 2 2 2 1 2 2 2 3 4 4
0 0 0 0 0 0 0 0 0 0 1 3 5 8 10 14 23 33 41 46 46 43 41 42 45 44 42 41 38 32 22 14 11 11 12 12 9 5 3 4 4 3 1 1 0 1 3 4 5
0 0 0 0 0 0 0 0 0 1 2 4 6 9 10 12 21 31 36 39 41 40 39 39 41 39 36 33 31 29 23 15 9 8 8 7 6 5 5 6 7 6 3 2 1 2 3 4 4
0 0 0 0 0 0 0 0 1 1 2 3 6 10 13 16 24 31 32 33 34 34 35 35 34 32 29 25 22 22 21 15 9 6 4 2 2 3 4 4 6 7 6 5 5 4 4 4 3
0 0 0 0 0 0 0 1 2 2 2 4 6 9 14 19 23 26 28 28 28 29 29 29 29 29 26 22 19 18 18 14 8 4 2 0 0 1 1 2 2 5 7 9 10 9 7 5 4
0 0 0 0 0 0 0 1 2 3 4 5 6 7 11 15 16 17 20 23 25 25 24 25 26 25 23 22 20 17 15 11 6 3 2 1 0 0 0 0 0 3 8 10 12 13 11 8 5
0 0 0 0 0 0 0 1 2 3 4 5 5 5 8 11 11 12 15 21 23 21 20 22 24 23 21 21 19 16 13 10 7 5 4 3 2 1 0 0 1 4 8 11 11 13 13 11 8
0 0 0 0 0 0 0 0 1 2 3 5 5 5 7 10 12 13 17 21 21 19 19 21 22 22 21 19 17 15 12 10 9 8 7 6 4 2 1 1 2 4 7 9 10 10 10 10 10
0 0 0 0 0 0 0 1 1 1 3 5 6 6 7 11 14 16 19 21 20 20 21 22 22 22 20 18 17 16 12 9 8 8 7 7 5 3 3 4 4 4 5 8 9 8 8 9 10

GEFSSGP_con_prob3kmehi_156.txt.gz
EHI
2 10 28 39 29 11 2 0 0 0 0 0 0 1 1 1 0 1 10 25 29 17 10 10 10 7 2 0 0 0 0 0 0 0 0 0 0 0 0 0 0 0 0 0 0 0 0 0 0
2 10 23 29 21 7 1 0 0 0 0 0 0 1 2 1 0 3 14 27 26 15 9 10 12 9 4 1 0 0 0 0 0 0 0 0 0 0 0 0 0 0 0 0 0 0 0 0 0
5 9 16 18 11 3 0 0 0 0 0 0 0 0 1 0 1 6 17 25 22 13 10 12 15 11 6 2 1 0 0 0 0 0 0 0 0 0 0 0 0 0 0 0 0 0 0 0 0
8 10 11 9 5 1 0 0 0 0 0 0 1 1 0 0 3 9 16 19 17 13 11 14 17 13 6 2 1 0 0 0 0 0 0 0 0 0 0 0 0 0 0 0 0 0 0 0 0
9 9 7 4 1 0 0 0 0 0 0 1 3 4 2 2 5 9 13 14 15 14 12 13 15 12 6 1 0 0 0 0 0 0 0 0 0 0 0 0 0 0 0 0 0 0 0 0 0
7 7 4 1 0 0 0 0 0 0 0 1 5 6 3 3 6 8 10 12 16 18 15 11 11 9 5 1 0 0 0 0 0 0 0 0 0 0 0 0 0 0 0 0 0 0 0 0 0
5 4 2 0 0 0 0 0 0 0 0 1 5 6 6 7 8 8 9 12 19 24 18 10 8 7 4 1 0 0 0 0 0 0 0 0 0 0 0 0 0 0 0 0 0 0 0 0 0
3 2 0 0 0 0 0 0 0 0 1 2 4 8 14 18 15 12 13 17 25 29 21 10 8 6 4 1 0 0 0 0 0 0 0 0 0 0 0 0 0 0 0 0 1 1 0 0 0
1 0 0 0 0 0 0 0 0 0 2 5 10 18 26 27 23 20 21 26 33 33 24 15 12 9 4 2 2 1 0 0 0 0 0 0 0 0 1 2 3 1 0 1 2 2 1 0 0
0 0 0 0 0 0 0 0 0 0 4 13 24 32 34 32 29 27 29 35 40 37 26 21 18 13 7 5 5 2 1 2 1 1 1 1 1 1 4 6 5 3 1 1 2 3 2 0 0
0 0 0 0 0 0 0 0 0 0 5 18 35 41 39 37 35 34 36 42 46 41 30 28 28 22 15 14 10 5 4 6 5 4 5 3 2 4 8 9 7 3 1 1 2 2 1 0 0
0 0 0 0 0 0 0 0 0 0 5 20 38 46 44 42 42 42 47 53 54 46 38 42 44 38 32 27 18 10 10 11 11 13 11 6 4 6 10 11 7 3 1 1 1 1 1 1 0
0 0 0 0 0 0 0 0 1 1 8 24 40 47 46 46 49 53 61 69 65 52 48 57 63 57 50 43 30 20 18 17 19 23 18 10 8 9 11 12 9 4 3 4 4 3 2 1 0
0 0 0 0 0 0 0 1 2 4 12 27 41 48 49 50 56 66 76 80 72 59 58 67 72 68 62 52 40 31 24 22 27 32 27 18 15 17 17 14 11 8 8 9 8 5 3 1 1
0 0 0 0 0 0 0 1 2 5 12 25 39 51 56 58 64 75 85 86 78 69 68 71 71 68 64 54 43 34 27 26 34 42 40 29 25 29 25 18 13 14 16 15 11 6 2 1 1
0 0 0 0 0 0 0 1 2 4 9 20 36 52 64 69 72 79 88 89 83 79 78 74 68 67 63 53 45 38 35 38 46 54 51 40 35 35 30 22 19 22 22 17 12 6 2 1 1
0 0 0 0 0 0 0 1 2 3 6 16 31 52 70 78 80 84 89 90 87 86 86 81 73 72 67 56 49 47 48 53 60 61 57 50 44 39 32 28 28 28 25 19 15 11 7 3 2
0 0 0 0 0 0 0 1 2 2 4 12 27 48 70 82 85 88 89 88 88 90 91 87 82 79 75 65 56 54 57 61 64 62 60 59 51 40 32 32 34 32 28 24 20 17 13 8 4
0 0 0 0 0 0 1 1 1 2 2 10 25 44 64 79 85 87 89 87 88 92 93 90 86 83 80 73 64 58 58 58 57 57 61 61 51 40 33 33 36 35 32 30 24 21 17 10 5
0 0 0 0 0 0 1 2 1 1 2 9 22 38 55 71 80 84 87 88 90 92 92 88 85 83 80 74 65 59 57 52 46 48 57 57 48 41 36 36 37 36 35 33 28 23 17 12 7
0 0 0 0 0 0 1 1 1 1 2 7 15 27 44 62 73 79 84 88 90 91 89 86 84 82 77 69 62 57 55 49 41 44 53 54 47 40 38 39 39 37 34 33 30 22 17 15 13
0 0 0 0 0 0 0 0 1 4 4 5 9 18 34 54 67 74 82 86 86 85 84 83 83 80 74 67 61 57 52 46 42 44 49 49 43 37 38 43 45 40 34 29 24 20 19 18 16
0 0 0 0 0 0 0 0 2 6 6 5 9 16 30 48 62 71 78 82 80 78 78 79 79 77 71 65 61 56 50 44 41 41 43 44 39 34 37 46 51 47 39 31 25 24 25 20 15
0 0 0 0 0 0 0 0 2 6 6 8 14 20 28 41 55 66 72 76 76 73 72 74 76 73 67 64 61 57 50 42 37 35 37 39 37 32 32 40 49 50 45 39 34 32 29 22 16
0 0 0 0 0 0 0 0 2 5 8 13 21 25 26 34 48 59 66 71 74 73 71 71 73 70 65 62 59 55 49 39 33 31 32 33 31 29 29 34 42 46 44 41 40 37 31 22 18
0 0 0 0 0 0 0 1 4 8 11 17 22 23 22 29 42 53 63 68 70 71 70 70 70 68 63 59 56 51 47 39 31 28 28 27 24 23 27 35 40 40 36 34 37 36 29 23 19
0 0 0 0 0 0 0 3 8 13 16 18 19 16 17 26 38 50 60 62 63 63 65 66 66 65 61 58 54 48 44 38 31 27 25 23 20 19 23 30 36 38 34 32 33 33 28 23 21
0 0 0 0 0 0 0 3 11 17 18 18 16 13 16 24 35 46 53 54 53 54 56 57 58 58 56 53 49 44 39 34 29 25 23 22 21 20 19 22 27 32 33 32 31 29 26 23 22
0 0 0 0 0 0 0 3 9 14 16 18 16 14 16 25 35 44 49 48 47 47 48 48 50 49 46 44 42 40 34 29 25 23 23 22 21 18 17 19 21 23 26 26 26 24 22 21 20
0 0 0 0 0 0 0 2 7 10 14 18 18 14 15 25 36 44 49 48 45 44 43 44 45 44 40 37 37 36 31 26 22 22 23 24 20 16 15 17 19 19 19 21 23 21 18 17 18

GEFSSGP_con_prob3kmehi_162.txt.gz
EHI
0 0 0 0 0 0 0 0 0 0 0 0 0 1 0 0 0 0 0 6 16 19 12 9 11 11 8 4 1 0 0 0 0 0 0 0 0 0 0 0 0 0 0 0 0 0 0 0 0
0 0 0 0 0 0 0 0 0 0 0 0 1 1 0 0 0 0 2 10 20 20 13 10 11 11 8 4 1 0 0 0 0 0 0 0 0 0 0 0 0 0 0 0 0 0 0 0 0
0 0 0 0 0 0 0 0 1 1 1 1 1 0 0 0 1 2 5 16 25 22 15 12 12 11 9 7 3 0 0 0 0 0 0 0 0 0 0 0 0 0 0 0 0 0 0 0 0
1 1 0 0 0 0 0 0 2 3 2 1 1 0 0 1 4 6 8 18 26 22 15 14 13 12 11 9 5 2 0 0 0 0 0 0 0 0 0 0 0 0 0 0 0 0 0 0 0
1 2 1 0 0 0 0 1 3 4 3 2 2 1 1 7 13 13 11 18 25 22 17 15 14 14 12 10 7 3 1 0 0 0 0 0 0 0 0 0 0 0 0 0 0 0 0 0 0
1 1 1 0 0 0 0 1 4 5 4 3 3 2 4 14 21 16 12 16 21 22 18 16 14 14 13 11 8 5 3 1 0 0 0 0 0 0 0 0 0 0 0 0 1 1 0 0 0
2 2 1 0 0 0 0 2 5 6 4 4 4 3 6 17 23 18 14 15 18 19 17 14 12 12 12 10 8 6 3 1 0 0 0 0 0 0 0 0 0 0 0 1 2 2 1 0 0
3 2 1 0 0 0 0 1 4 5 5 5 5 4 12 25 31 27 20 17 17 17 15 12 10 10 10 9 8 6 3 1 0 0 0 0 0 0 0 0 0 0 0 2 3 2 1 0 0
2 1 0 0 0 0 0 2 3 4 6 7 6 9 24 42 50 46 35 26 22 18 14 12 10 10 9 8 7 5 3 1 0 0 0 0 0 0 0 0 0 0 0 1 2 2 1 0 0
1 1 0 0 0 0 1 3 4 6 9 10 12 20 37 55 66 64 55 41 30 22 15 12 10 9 9 7 5 3 1 0 0 0 0 0 0 0 0 0 0 0 0 1 2 1 1 1 1
1 1 0 0 0 0 0 1 4 7 10 13 19 30 41 54 67 72 67 54 40 27 17 11 8 7 7 5 3 1 0 0 0 0 0 0 0 0 0 0 0 0 0 0 1 1 0 0 0
0 0 0 0 0 0 0 1 4 6 9 15 23 31 38 46 57 65 66 60 50 38 23 12 7 5 4 3 1 0 0 0 0 0 0 0 0 0 0 0 0 0 0 0 0 0 0 0 0
0 0 0 0 0 0 1 4 6 8 13 20 24 27 32 40 49 55 60 63 60 50 35 22 14 9 6 4 1 0 0 0 0 0 0 0 0 0 0 0 0 0 0 0 0 0 0 0 0
0 0 0 0 0 1 4 7 10 15 24 27 24 22 27 37 45 50 57 64 68 62 49 38 31 21 14 10 5 3 1 0 0 0 0 0 0 0 0 0 0 0 0 0 0 0 0 0 0
0 0 0 0 0 2 6 9 13 24 33 31 23 21 26 35 42 49 57 64 71 71 62 52 46 37 28 22 17 12 7 4 3 1 1 1 1 3 2 1 0 0 0 0 0 0 0 0 0
0 0 0 0 0 2 5 9 17 30 38 32 24 26 33 37 42 52 59 64 71 75 70 62 57 51 42 34 29 23 17 12 9 7 6 5 5 6 6 4 1 0 0 0 0 0 0 0 0
0 0 0 0 0 1 4 9 18 33 41 37 31 35 42 43 47 56 62 65 71 73 71 66 63 60 52 42 37 31 24 20 18 15 12 11 11 11 9 7 4 2 1 0 0 0 0 0 0
0 0 0 0 0 1 3 8 19 32 43 43 41 44 49 49 51 60 66 68 70 72 70 67 64 63 58 50 45 40 33 27 24 20 17 15 16 15 11 7 5 4 3 1 1 0 0 0 0
0 0 0 0 0 1 2 7 15 28 40 47 49 52 54 52 55 66 72 72 73 74 73 69 67 65 62 56 51 48 41 32 25 20 17 16 16 16 11 7 5 5 4 2 1 1 1 0 0
0 0 0 0 0 1 2 5 9 19 32 45 52 54 55 56 62 73 77 75 75 77 75 72 69 67 62 55 50 47 41 31 23 18 15 14 15 15 13 8 5 4 3 1 1 2 2 1 0
0 0 0 0 0 1 2 3 4 11 23 38 50 55 57 62 67 74 77 76 76 77 76 72 69 67 62 55 49 46 40 31 23 17 13 12 13 16 15 10 5 3 1 0 0 1 1 1 0
0 0 0 0 0 0 1 2 2 7 18 32 46 55 58 62 66 70 74 75 75 76 74 71 68 66 61 56 51 48 40 29 20 15 11 9 10 14 16 11 6 3 1 0 0 0 0 0 0
0 0 0 0 0 0 0 0 0 5 16 28 42 53 57 60 62 65 68 67 68 69 68 65 63 62 59 54 50 45 35 21 13 11 9 7 7 9 11 9 5 2 1 0 0 0 0 0 0
0 0 0 0 0 0 0 0 0 5 14 25 38 49 55 57 58 59 60 60 61 63 63 62 60 58 55 50 44 37 27 15 8 8 8 7 5 4 5 4 2 1 1 0 0 0 0 0 0
0 0 0 0 0 0 0 0 0 4 12 22 33 43 50 53 54 55 55 56 59 61 63 62 58 54 50 44 37 31 23 13 7 6 7 6 4 2 1 1 0 0 0 0 0 0 0 0 0
0 0 0 0 0 0 0 0 2 6 12 19 27 36 42 45 48 50 52 54 57 60 61 60 55 51 46 40 32 26 20 12 7 5 5 4 2 1 0 0 0 0 0 0 0 0 0 0 0
0 0 0 0 0 0 0 1 5 9 13 18 24 30 34 36 41 46 48 49 52 54 56 55 51 46 42 37 29 23 17 10 6 4 3 2 1 0 0 0 1 0 0 0 0 0 0 0 0
0 0 0 0 0 0 0 1 5 10 14 17 21 26 30 34 40 44 45 43 43 45 46 47 45 41 37 32 25 17 11 7 5 3 2 1 0 0 0 1 2 1 0 0 0 0 0 0 0
0 0 0 0 0 0 0 0 3 8 13 16 21 24 29 36 42 43 42 38 36 36 37 39 38 35 32 27 19 11 7 7 7 5 3 1 0 0 0 0 1 1 0 0 0 0 0 0 0
0 0 0 0 0 0 0 0 2 7 11 15 21 24 30 38 42 41 39 37 35 33 34 35 34 32 29 23 16 9 7 9 10 8 4 1 0 0 0 0 0 1 0 0 0 0 0 0 0